#timestamp,LO_Frequency,Hit,StdDev 
1706583615.3,286046998.1,N
1706583635.1,286047001.0,N
1706583655.9,286047000.2,N
1706583675.7,286047001.0,N
1706583695.5,286046998.3,N
1706583715.4,286046999.2,N
1706583735.2,286046998.1,N
1706583755.1,286046998.2,N
1706583756.0,286046998.2,N
1706583775.8,286046999.9,N
1706583795.6,286046998.5,N
1706583815.5,286046999.1,N
1706583835.3,286046996.6,Y
1706583855.2,286046998.5,P
1706583875.9,286047001.2,P
1706583895.7,286047000.4,N
1706583915.6,286047002.6,N
1706583935.4,286047002.8,N
1706583955.2,286047000.0,N
1706583975.1,286046999.9,N
1706583976.0,286046999.9,N
1706583995.8,286047001.0,N
1706584015.7,286046998.8,N
1706584035.5,286047001.1,N
1706584055.3,286046998.3,N
1706584075.2,286047000.4,N
1706584095.0,286047001.1,N
1706584095.9,286047001.1,N
1706584115.7,286047000.6,N
1706584135.6,286047000.9,N
1706584155.4,286047000.0,N
1706584175.3,286047000.2,N
1706584195.1,286047000.0,N
1706584196.0,286047000.0,N
1706584215.8,286047000.3,N
1706584235.7,286047002.0,N
1706584255.5,286047002.8,N
1706584275.4,286047001.9,N
1706584295.2,286047004.3,Y
1706584315.0,286047004.4,P
1706584315.9,286047004.4,N
1706584335.8,286047001.6,N
1706584355.6,286047002.1,N
1706584375.5,286047002.5,N
1706584395.3,286047002.0,N
1706584415.1,286047002.1,N
1706584435.9,286047002.3,N
1706584455.7,286047004.4,Y
1706584475.6,286046998.1,P
1706584495.4,286047001.0,N
1706584515.2,286046998.7,N
1706584535.1,286047002.7,N
1706584536.0,286047002.7,N
1706584555.8,286047000.4,N
1706584575.6,286047000.0,N
1706584595.5,286047000.6,N
1706584615.3,286046998.2,N
1706584635.2,286046998.7,N
1706584655.9,286046998.8,N
1706584675.7,286046999.1,N
1706584695.6,286046997.6,N
1706584715.4,286046997.8,N
1706584735.2,286046997.0,N
1706584755.1,286046999.0,N
1706584756.0,286046999.0,N
1706584775.8,286046999.3,N
1706584795.7,286046999.1,N
1706584815.5,286046996.7,N
1706584835.4,286046998.0,N
1706584855.2,286046997.3,N
1706584875.0,286046996.7,N
1706584875.9,286046996.7,N
1706584895.8,286046996.7,N
1706584915.6,286046999.2,N
1706584935.5,286046998.8,N
1706584955.3,286046999.0,N
1706584975.1,286046999.1,N
1706584995.9,286046999.4,N
1706585015.7,286046997.0,N
1706585035.6,286046996.8,N
1706585055.4,286046996.6,N
1706585075.2,286046998.2,N
1706585095.1,286046996.5,N
1706585096.0,286046996.5,N
1706585115.8,286046998.9,N
1706585135.7,286046996.5,Y
1706585155.5,286047001.2,P
1706585175.3,286047000.7,N
1706585195.2,286046998.1,N
1706585215.0,286046999.9,N
1706585215.9,286046999.9,N
1706585235.8,286047001.0,N
1706585255.6,286047000.4,N
1706585275.4,286047000.6,N
1706585295.3,286047000.4,N
1706585315.1,286047000.3,N
1706585335.9,286046998.8,N
1706585355.7,286046998.1,N
1706585375.5,286046998.5,N
1706585395.4,286046998.5,N
1706585415.2,286047002.8,N
1706585435.0,286046998.8,N
1706585435.9,286046998.8,N
1706585455.8,286047001.2,N
1706585475.6,286047000.8,N
1706585495.5,286046999.9,N
1706585515.3,286046998.4,N
1706585535.1,286046998.3,N
1706585555.9,286046999.1,N
1706585575.7,286046999.5,N
1706585595.6,286046996.7,N
1706585615.4,286046997.0,N
1706585635.2,286046999.0,N
1706585655.1,286046998.3,N
1706585656.0,286046998.3,N
1706585675.8,286046998.1,N
1706585695.6,286047001.2,N
1706585715.5,286046998.6,N
1706585735.3,286047001.0,N
1706585755.2,286046998.5,N
1706585775.0,286046998.8,N
1706585775.9,286046998.8,N
1706585795.8,286047000.0,N
1706585815.6,286047000.5,N
1706585835.4,286046999.7,N
1706585855.3,286047001.6,N
1706585875.1,286046999.7,N
1706585895.8,286046999.7,N
1706585915.7,286047000.6,N
1706585935.5,286047001.0,N
1706585955.4,286046998.2,N
1706585975.2,286046998.2,N
1706585995.0,286046999.0,N
1706585995.9,286046999.0,N
1706586015.8,286046999.4,N
1706586035.6,286046996.5,Y
1706586055.4,286046998.1,P
1706586075.3,286046998.9,N
1706586095.1,286046999.1,N
1706586115.9,286046997.7,Y
1706586135.7,286046999.6,P
1706586155.5,286046998.8,P
1706586175.4,286046996.6,P
1706586195.2,286047000.6,N
1706586215.1,286047002.3,N
1706586216.0,286047002.3,N
1706586235.8,286047001.5,N
1706586255.6,286047001.6,N
1706586275.5,286047001.4,N
1706586295.3,286047004.4,N
1706586315.1,286047003.6,N
1706586335.9,286047004.0,N
1706586355.7,286047002.5,N
1706586375.6,286047002.1,N
1706586395.4,286047000.1,N
1706586415.2,286046998.5,N
1706586435.1,286047000.9,N
1706586436.0,286047000.9,N
1706586455.8,286047001.0,N
1706586475.6,286047001.0,N
1706586495.5,286047002.2,N
1706586515.3,286047002.2,N
1706586535.2,286047002.6,N
1706586555.9,286047002.0,N
1706586575.7,286047002.1,N
1706586595.6,286047001.3,N
1706586615.4,286047001.5,N
1706586635.3,286047001.7,N
1706586655.1,286047002.8,N
1706586656.0,286047002.8,N
1706586675.8,286047000.3,N
1706586695.7,286046999.8,N
1706586715.5,286047002.4,N
1706586735.3,286046999.7,N
1706586755.2,286047000.2,N
1706586775.0,286047002.5,N
1706586775.9,286047002.5,N
1706586795.8,286047002.7,N
1706586815.6,286047002.1,N
1706586835.4,286046999.8,N
1706586855.3,286047000.5,N
1706586875.1,286046999.9,N
1706586895.9,286047000.6,N
1706586915.7,286047002.7,N
1706586935.5,286047000.4,N
1706586955.4,286047002.3,N
1706586975.2,286047000.6,N
1706586995.0,286047000.9,N
1706586996.0,286047000.9,N
1706587015.8,286047000.3,N
1706587035.6,286047001.0,N
1706587055.5,286047000.0,N
1706587075.3,286047000.2,N
1706587095.1,286047002.1,N
1706587115.9,286047001.7,N
1706587165.7,286047002.1,E
1706587175.6,286047000.4,N
1706587195.5,286047002.4,P
